Weather History for St. Joseph, MO

Change the Weather History Date:

Monday, December 3, 2012

  Actual Average Record
Temperature  
Mean Temperature 56 °F 34 °F  
Max Temperature 72 °F 44 °F 72 °F (2012)
Min Temperature 39 °F 23 °F 1 °F (1919)
Degree Days  
Heating Degree Days 9 31  
Month to date heating degree days 39 93  
Since 1 July heating degree days 1151 1204  
Cooling Degree Days 0 0  
Month to date cooling degree days 0 0  
Year to date cooling degree days 1565 1221  
Growing Degree Days 7 (Base 50)    
Moisture  
Dew Point 48 °F    
Average Humidity 69    
Maximum Humidity 93    
Minimum Humidity 44    
Precipitation  
Precipitation 0.00 in 0.04 in 2.01 in (1944)
Month to date precipitation 0.00 0.13  
Year to date precipitation 22.31 34.21  
Sea Level Pressure  
Sea Level Pressure 29.80 in    
Wind  
Wind Speed 16 mph (SW)    
Max Wind Speed 35 mph    
Max Gust Speed 45 mph    
Visibility 10 miles    
Events      
T = Trace of Precipitation, MM = Missing Value Source: NWS Daily Summary

Daily Weather History Graph

Daily Weather History Graph

Search for Another Location

Airport:

Trip Planner

Search our weather history database for the weather conditions in past years. The results will help you decide how hot, cold, wet, or windy it might be!

Date:

Astronomy

Dec. 03, 2012 Rise Set
Actual Time 7:24 AM CST 4:55 PM CST
Civil Twilight 6:54 AM CST 5:25 PM CST
Nautical Twilight 6:20 AM CST 5:58 PM CST
Astronomical Twilight 5:47 AM CST 6:31 PM CST
Moon 9:42 PM CST (12/3) 10:48 AM CST (12/3)
Length of Visible Light 10h 31m
Length of Day
9h 31m
Waning Gibbous, 78% of the Moon is Illuminated
Dec 3
Waning Gibbous
Dec 6
Last Quarter
Dec 13
New
Dec 19
First Quarter
Dec 28
Full

Hourly Weather History & Observations

Time (CST) Temp. Windchill Dew Point Humidity Pressure Visibility Wind Dir Wind Speed Gust Speed Precip Events Conditions
12:53 AM 50.0 °F - 48.0 °F 93% 29.82 in 6.0 mi SE 5.8 mph - N/A   Clear
1:53 AM 57.0 °F - 53.1 °F 87% 29.78 in 7.0 mi SSE 11.5 mph - N/A   Clear
2:53 AM 59.0 °F - 55.0 °F 87% 29.75 in 10.0 mi South 13.8 mph - N/A   Clear
3:53 AM 61.0 °F - 55.9 °F 83% 29.71 in 10.0 mi South 15.0 mph 24.2 mph N/A   Clear
4:53 AM 63.0 °F - 57.0 °F 81% 29.69 in 10.0 mi South 17.3 mph - N/A   Clear
5:53 AM 62.1 °F - 57.0 °F 84% 29.68 in 10.0 mi South 17.3 mph - N/A   Clear
6:53 AM 63.0 °F - 55.9 °F 78% 29.69 in 10.0 mi South 15.0 mph - N/A   Clear
7:53 AM 63.0 °F - 55.9 °F 78% 29.71 in 10.0 mi South 13.8 mph - N/A   Mostly Cloudy
8:45 AM 64.4 °F - 57.2 °F 77% 29.70 in 10.0 mi South 19.6 mph 28.8 mph N/A   Overcast
9:53 AM 66.9 °F - 57.0 °F 70% 29.70 in 10.0 mi SSW 23.0 mph 34.5 mph N/A   Overcast
10:20 AM 69.8 °F - 55.4 °F 60% 29.70 in 10.0 mi SSW 31.1 mph 38.0 mph N/A   Mostly Cloudy
10:53 AM 70.0 °F - 55.0 °F 59% 29.71 in 10.0 mi SSW 25.3 mph 35.7 mph N/A   Mostly Cloudy
11:53 AM 70.0 °F - 54.0 °F 57% 29.72 in 10.0 mi WSW 24.2 mph 35.7 mph N/A   Overcast
12:53 PM 70.0 °F - 50.0 °F 49% 29.73 in 10.0 mi WSW 19.6 mph 25.3 mph N/A   Scattered Clouds
1:53 PM 71.1 °F - 48.9 °F 45% 29.74 in 10.0 mi WSW 20.7 mph 26.5 mph N/A   Clear
2:53 PM 63.0 °F - 42.1 °F 46% 29.79 in 10.0 mi NW 23.0 mph 27.6 mph N/A   Clear
3:53 PM 59.0 °F - 39.9 °F 49% 29.84 in 10.0 mi NNW 19.6 mph 24.2 mph N/A   Clear
4:53 PM 57.0 °F - 41.0 °F 55% 29.88 in 10.0 mi North 12.7 mph - N/A   Clear
5:53 PM 57.0 °F - 39.9 °F 53% 29.91 in 10.0 mi North 13.8 mph - N/A   Clear
6:53 PM 55.9 °F - 37.9 °F 51% 29.95 in 10.0 mi North 15.0 mph - N/A   Clear
7:53 PM 54.0 °F - 34.0 °F 47% 29.99 in 10.0 mi North 13.8 mph - N/A   Clear
8:53 PM 51.1 °F - 32.0 °F 48% 30.01 in 10.0 mi North 9.2 mph - N/A   Clear
9:53 PM 43.0 °F 38.8 °F 30.9 °F 62% 30.03 in 10.0 mi North 6.9 mph - N/A   Clear
10:53 PM 43.0 °F 38.2 °F 32.0 °F 65% 30.04 in 10.0 mi North 8.1 mph - N/A   Clear